Weather History for CYWG - January, 2012

Change the Weather History Date:

Tuesday, January 24, 2012

  Actual Average Record
Temperature  
Mean Temperature 6 °F -  
Max Temperature 19 °F 8 °F 32 °F (2015)
Min Temperature -8 °F -4 °F -32 °F (2004)
Degree Days  
Heating Degree Days 60    
Moisture  
Dew Point 6 °F    
Average Humidity 88    
Maximum Humidity 100    
Minimum Humidity 72    
Precipitation  
Precipitation 0.00 in - - ()
Sea Level Pressure  
Sea Level Pressure 30.08 in    
Wind  
Wind Speed 9 mph ()    
Max Wind Speed 21 mph    
Max Gust Speed 28 mph    
Visibility 14.1 miles    
Events Snow    
Averages and records for this station are not official NWS values.
T = Trace of Precipitation, MM = Missing Value Source: Averaged Metar Reports

Daily Weather History Graph

Daily Weather History Graph

Search for Another Location

Airport or City:

Trip Planner

Search our weather history database for the weather conditions in past years. The results will help you decide how hot, cold, wet, or windy it might be!

Date:

Astronomy

Jan. 24, 2012 Rise Set
Actual Time 8:12 AM CST 5:09 PM CST
Civil Twilight 7:37 AM CST 5:45 PM CST
Nautical Twilight 6:57 AM CST 6:24 PM CST
Astronomical Twilight 6:19 AM CST 7:02 PM CST
Moon 8:29 AM CST (1/24) 7:18 PM CST (1/24)
Length of Visible Light 10h 08m
Length of Day
8h 56m
New Moon, 2% of the Moon is Illuminated
Jan 24
New Moon
Jan 30
First Quarter
Feb 7
Full
Feb 14
Last Quarter
Feb 21
New

Hourly Weather History & Observations

Time (CST) Temp. Windchill Dew Point Humidity Pressure Visibility Wind Dir Wind Speed Gust Speed Precip Events Conditions
12:00 AM -4 °F - -5 °F 91% 30.01 in 9 mi East 2.3 mph - -  
12:00 AM -4.0 °F -12.4 °F -5.8 °F 92% 30.01 in 15.0 mi East 3.5 mph - N/A   Clear
1:00 AM -4.0 °F - -7.6 °F 85% 30.03 in 15.0 mi SW 2.3 mph - N/A   Scattered Clouds
2:00 AM -4.0 °F -16.3 °F -5.8 °F 92% 30.06 in 15.0 mi WSW 5.8 mph - N/A   Mostly Cloudy
3:00 AM -4.0 °F -14.6 °F -4.0 °F 100% 30.09 in 15.0 mi SW 4.6 mph - N/A   Mostly Cloudy
4:00 AM -2.2 °F -12.5 °F -4.0 °F 92% 30.07 in 15.0 mi SSE 4.6 mph - N/A   Mostly Cloudy
5:00 AM -0.4 °F -12.0 °F -2.2 °F 92% 30.09 in 15.0 mi South 5.8 mph - N/A   Mostly Cloudy
6:00 AM -1 °F - -3 °F 88% 30.10 in 9 mi SSE 6.9 mph - -  
7:00 AM -0.4 °F -13.4 °F -2.2 °F 92% 30.11 in 15.0 mi South 6.9 mph - N/A   Mostly Cloudy
8:00 AM 1.4 °F -16.1 °F -0.4 °F 92% 30.09 in 15.0 mi South 12.7 mph - N/A   Mostly Cloudy
9:00 AM 5.0 °F -13.0 °F 1.4 °F 85% 30.09 in 15.0 mi South 15.0 mph - N/A   Mostly Cloudy
10:00 AM 10.4 °F -7.2 °F 5.0 °F 79% 30.11 in 15.0 mi South 17.3 mph - N/A   Mostly Cloudy
11:00 AM 12.2 °F -5.8 °F 6.8 °F 79% 30.11 in 15.0 mi South 19.6 mph 25.3 mph N/A   Overcast
11:13 AM 12.2 °F -6.3 °F - N/A% - 12.0 mi South 20.7 mph - N/A Snow Light Snow
11:49 AM 14.0 °F -3.0 °F - N/A% - 15.0 mi South 18.4 mph - N/A   Mostly Cloudy
12:00 PM 14 °F - 9 °F 72% 30.09 in 9 mi South 19.6 mph - -  
12:00 PM 14.0 °F -3.0 °F 8.6 °F 79% 30.09 in 15.0 mi South 18.4 mph 24.2 mph N/A   Mostly Cloudy
1:00 PM 15.8 °F -0.6 °F 10.4 °F 79% 30.08 in 15.0 mi South 18.4 mph 27.6 mph N/A   Mostly Cloudy
2:00 PM 17.6 °F 0.9 °F 12.2 °F 79% 30.07 in 15.0 mi South 20.7 mph - N/A   Scattered Clouds
3:00 PM 19.4 °F 5.5 °F 14.0 °F 80% 30.08 in 15.0 mi South 15.0 mph 20.7 mph N/A   Partly Cloudy
4:00 PM 19.4 °F 6.0 °F 15.8 °F 86% 30.09 in 15.0 mi South 13.8 mph - N/A   Partly Cloudy
5:00 PM 17.6 °F 6.4 °F 14.0 °F 86% 30.10 in 15.0 mi South 9.2 mph - N/A   Partly Cloudy
6:00 PM 16 °F - 13 °F 85% 30.10 in 9 mi South 12.7 mph - -  
6:00 PM 15.8 °F 2.1 °F 14.0 °F 93% 30.11 in 15.0 mi South 12.7 mph - N/A   Clear
7:00 PM 15.8 °F 1.4 °F 14.0 °F 93% 30.11 in 15.0 mi South 13.8 mph - N/A   Partly Cloudy
8:00 PM 15.8 °F 2.1 °F 14.0 °F 93% 30.11 in 15.0 mi South 12.7 mph - N/A   Partly Cloudy
9:00 PM 14.0 °F 0.5 °F 12.2 °F 93% 30.09 in 15.0 mi South 11.5 mph - N/A   Partly Cloudy
10:00 PM 14.0 °F -0.8 °F 12.2 °F 93% 30.07 in 15.0 mi South 13.8 mph - N/A   Partly Cloudy
11:00 PM 14.0 °F -0.8 °F 12.2 °F 93% 30.05 in 15.0 mi South 13.8 mph - N/A   Clear